Location: Unspecified
(39.4331°N, 0.0000°E)
Time: 23:56:31
(UTC+00:00)

SL-3 DEB - Visible Passes

Search period start: 04 April 2026 00:00
Search period end: 14 April 2026 00:00
Orbit: 851 x 867 km, 81.3° (Epoch: 29 March)

Date Brightness Start Highest point End Pass type
(mag) Time Alt. Az. Time Alt. Az. Time Alt. Az.
11 Apr ? 04:55:18 10° SSE 05:00:21 34° E 05:05:24 10° NNE visible
12 Apr ? 04:45:49 10° SSE 04:50:49 33° E 04:55:49 10° NNE visible
13 Apr ? 04:36:20 10° SSE 04:41:17 32° E 04:46:13 10° NNE visible
